Wind_Speed
5 5 5 5 5 5 6 6 6 6 6 6 6 6 6 6 6 6 6 6 6 5 5 5 4 4 4 4 3 4 4 4 4 4 4 4 4 3 3 3 3 3 3
5 5 5 6 6 5 5 6 6 6 6 6 6 6 6 6 6 7 7 6 6 5 5 5 5 4 4 4 3 3 4 4 4 4 4 4 3 3 2 2 2 2 3
4 5 5 6 6 6 5 5 6 6 6 6 6 6 6 6 7 6 6 6 6 6 6 5 5 4 4 3 2 3 4 4 4 4 3 4 3 3 2 1 1 2 2
5 5 6 6 6 6 6 5 5 5 6 6 6 6 6 6 7 6 5 6 6 6 6 5 5 4 3 3 3 4 5 5 4 4 3 3 3 3 2 2 1 1 1
5 6 7 6 6 6 6 6 5 5 5 6 6 6 6 7 6 5 5 5 5 5 5 4 4 3 3 3 3 4 5 5 4 4 3 2 2 2 2 2 2 1 1
5 7 7 7 7 6 6 6 5 5 6 6 6 6 6 6 6 5 5 5 5 4 4 3 4 4 3 4 3 3 4 4 4 4 3 3 2 2 2 2 3 2 2
5 5 6 6 6 5 6 6 5 5 6 7 7 6 6 5 5 5 4 4 4 4 3 3 3 3 3 4 3 4 4 4 4 4 3 3 3 3 3 3 2 2 2
4 4 5 6 6 5 5 6 6 6 7 6 6 6 6 5 5 4 4 3 3 3 3 3 3 3 3 4 4 4 5 5 5 4 4 4 4 4 3 3 2 2 3
3 4 4 5 5 5 5 7 7 7 7 7 7 6 6 5 4 4 4 3 3 3 3 3 3 3 3 4 4 5 4 5 5 4 4 4 5 5 4 3 3 3 4
3 3 4 4 4 4 5 6 6 6 6 7 6 6 5 4 3 3 3 4 4 4 3 3 3 4 4 4 5 5 5 5 5 5 4 4 5 5 5 4 4 4 4
3 3 3 3 3 3 4 4 5 5 5 5 5 4 4 3 3 3 3 4 4 4 3 3 3 3 4 5 5 5 5 5 5 4 5 4 5 5 5 5 5 5 5
3 3 2 2 3 3 4 4 4 4 4 3 3 3 3 3 3 3 2 2 3 3 3 3 3 3 3 4 4 5 5 5 4 4 5 5 5 5 5 6 6 6 5
4 3 3 3 3 3 4 3 3 2 2 2 2 2 3 3 3 3 2 2 3 3 4 4 4 4 4 4 4 5 6 5 5 5 5 5 6 5 5 6 6 6 6
4 3 3 2 2 3 3 3 2 2 2 2 2 3 2 3 3 3 3 3 3 4 4 5 5 5 5 4 5 6 6 6 6 6 6 6 6 6 6 7 7 7 8
4 3 2 2 3 3 2 2 2 2 2 2 3 2 2 3 3 3 4 4 4 5 5 6 6 6 5 5 6 7 7 7 7 7 7 7 6 7 7 8 8 8 8
4 4 4 3 2 2 3 3 2 2 2 2 2 3 2 3 3 4 4 4 4 5 6 6 6 5 5 6 7 8 8 8 8 8 8 7 7 7 7 8 8 8 8
6 5 4 3 3 3 2 3 2 2 3 3 3 3 4 3 4 4 4 4 5 6 6 6 5 5 6 7 7 8 8 8 8 8 8 8 8 8 9 8 8 8 9
7 5 4 3 3 3 3 3 3 3 4 4 4 4 4 4 4 4 5 5 6 6 6 6 6 6 7 7 7 8 9 9 8 9 9 9 9 9 9 10 10 10 10
7 6 5 4 4 4 3 3 3 4 4 4 4 4 4 4 5 4 5 6 7 7 7 6 5 6 7 7 8 9 9 9 9 10 10 10 10 10 10 11 11 11 11
7 6 5 5 4 4 4 4 5 5 4 4 5 5 5 5 5 5 5 7 7 6 6 7 7 8 9 9 9 10 10 10 10 11 11 11 12 12 11 12 12 12 12
6 6 6 5 5 5 5 5 6 6 6 6 5 5 5 5 5 5 6 7 7 7 7 8 8 9 10 10 10 10 11 11 11 12 12 12 12 12 12 12 13 14 13
7 6 6 6 6 6 6 6 6 6 7 7 6 6 6 6 6 6 7 7 8 8 9 9 9 10 11 11 11 12 12 12 12 13 13 13 13 13 13 14 14 15 15
7 7 7 7 7 7 7 8 8 7 7 7 7 7 7 6 7 7 7 8 9 9 9 10 11 12 12 12 12 13 13 13 14 14 14 15 14 14 14 14 15 16 15
8 7 7 7 7 7 8 8 9 8 7 7 7 8 7 6 6 7 7 8 9 10 10 11 11 11 11 12 12 13 14 14 14 14 14 14 14 15 15 15 15 15 15
8 7 7 8 8 9 9 9 9 9 8 7 7 7 8 7 7 8 8 9 10 11 11 12 11 12 12 12 13 14 14 15 15 15 15 15 15 15 16 16 15 15 16
9 8 8 9 9 9 9 10 10 9 9 9 8 8 8 8 9 9 10 10 11 11 12 12 13 13 13 13 14 15 15 16 17 16 16 16 15 15 16 16 16 16 15
Wind_Direction
93 96 98 104 108 120 135 141 143 143 142 143 144 144 141 141 136 135 129 131 129 122 118 114 104 108 95 76 74 87 78 76 75 75 76 84 89 87 88 86 81 81 76
93 92 103 103 100 108 128 139 145 144 144 139 133 135 140 143 137 124 122 124 123 117 121 111 100 92 82 75 80 68 52 59 69 74 73 75 78 77 87 85 70 73 66
93 101 111 106 98 97 119 131 142 146 147 143 138 131 138 137 134 128 125 120 117 107 110 114 104 90 75 68 64 44 42 50 63 70 57 55 59 68 64 42 28 49 51
93 103 110 106 99 95 103 117 124 131 141 148 143 131 131 132 133 125 121 114 107 107 102 100 100 93 78 57 49 35 38 44 46 46 42 46 50 54 45 29 14 24 39
91 100 104 104 100 99 101 105 108 119 133 138 131 127 125 128 128 124 119 106 103 105 100 91 81 74 66 52 34 26 39 37 39 36 34 37 34 28 21 20 1 338 327
90 93 92 100 100 101 101 102 108 114 125 132 130 121 121 123 120 120 116 104 97 98 95 86 68 56 45 32 26 28 38 38 30 27 30 29 13 2 8 6 9 358 335
94 92 85 97 100 105 102 98 102 107 115 123 124 118 121 124 119 116 109 99 89 86 85 69 50 37 35 29 20 21 27 18 16 18 18 12 1 351 357 1 359 349 335
98 95 87 91 91 96 104 99 96 102 108 111 115 114 115 115 116 107 99 97 76 62 61 54 41 33 28 16 7 17 17 11 15 21 22 16 11 357 353 358 353 338 333
106 100 90 92 88 90 102 108 103 100 104 104 106 111 111 110 108 96 90 93 71 56 50 40 31 33 31 15 7 12 10 14 18 22 17 12 8 6 7 348 338 325 323
89 97 99 99 91 89 102 110 108 103 102 102 102 102 104 99 88 75 71 77 65 58 48 40 34 25 20 12 6 7 358 8 18 20 17 17 20 19 18 358 341 331 317
79 82 101 103 91 88 96 107 114 111 106 107 98 93 92 92 81 69 62 64 56 49 44 31 19 31 17 12 6 5 358 3 20 17 13 18 21 21 13 1 351 340 323
70 65 69 82 86 80 92 107 114 107 99 106 88 80 82 83 77 68 61 52 43 33 24 20 19 18 16 10 1 360 359 1 360 358 0 3 1 1 0 354 345 333 322
67 66 73 72 70 86 83 87 99 102 84 61 55 57 68 64 52 40 31 27 23 15 5 357 358 357 359 1 355 355 354 358 350 344 346 353 352 354 352 347 341 333 323
62 68 64 65 77 87 91 80 77 70 49 37 42 46 43 34 21 13 13 8 6 2 353 345 343 345 349 351 349 351 347 348 345 343 342 344 342 338 336 332 329 326 322
66 70 64 51 62 81 79 64 55 28 32 20 19 18 17 10 358 1 2 356 351 350 345 335 330 327 334 338 340 346 341 343 341 335 331 330 330 325 323 322 319 319 321
50 47 47 46 57 58 43 27 32 17 5 5 359 358 358 354 350 355 355 354 345 342 340 333 329 328 332 333 333 338 337 337 334 329 326 325 324 321 319 315 313 314 317
36 38 46 50 45 34 20 13 7 351 344 337 332 346 342 342 341 342 343 347 344 342 339 337 330 330 329 329 330 332 333 333 331 327 324 319 318 316 315 312 309 309 309
33 34 44 49 38 28 5 0 351 338 337 342 344 349 342 342 340 345 343 341 345 341 335 337 331 327 326 328 328 326 327 330 328 326 323 318 313 310 308 310 311 306 303
23 24 29 31 29 24 8 345 341 341 336 344 344 345 340 342 341 345 344 343 346 345 341 336 326 323 323 325 324 323 325 326 322 320 319 317 312 307 306 306 308 305 304
20 22 25 21 14 11 357 343 345 345 344 343 338 339 336 332 335 338 333 335 339 341 341 339 330 324 320 321 321 322 322 321 321 319 321 319 314 310 305 306 308 308 306
18 17 15 12 8 360 350 347 358 359 358 354 344 339 335 332 330 329 330 333 335 336 332 329 325 321 318 318 318 320 323 325 323 320 320 317 316 312 309 307 305 305 303
14 7 4 8 13 9 358 351 353 351 350 350 350 344 341 337 331 330 331 334 332 331 328 326 322 320 317 317 320 320 320 321 322 320 318 315 313 311 308 306 306 304 302
14 12 9 7 5 359 354 352 348 346 345 348 350 345 343 341 338 333 333 335 333 330 329 327 324 321 319 318 320 323 323 322 321 319 316 312 311 310 309 307 307 305 303
6 2 4 4 359 355 349 347 349 345 341 342 343 347 344 342 333 328 330 332 330 328 328 326 324 322 321 320 322 325 327 326 326 326 320 315 313 313 311 308 305 303 303
356 353 352 351 350 349 347 345 344 345 343 344 343 340 335 332 336 334 332 329 327 326 325 324 323 322 320 320 321 321 322 323 323 322 320 316 313 312 312 311 308 306 303
350 349 349 347 343 340 338 338 338 337 339 341 340 338 334 334 334 331 329 327 328 327 326 325 322 319 317 316 316 316 316 317 318 317 316 313 311 310 311 310 307 306 304
Height
5881 5881 5881 5880 5880 5881 5882 5882 5883 5884 5885 5885 5886 5886 5887 5887 5888 5888 5889 5889 5889 5890 5890 5890 5891 5891 5892 5892 5892 5892 5892 5893 5893 5893 5893 5894 5894 5894 5895 5895 5895 5895 5895
5882 5882 5882 5882 5882 5882 5883 5883 5885 5885 5886 5887 5887 5888 5888 5889 5889 5890 5890 5890 5891 5891 5891 5892 5892 5893 5893 5893 5893 5893 5893 5894 5894 5894 5894 5894 5895 5895 5895 5895 5895 5896 5896
5883 5883 5884 5883 5883 5884 5884 5885 5886 5886 5887 5888 5889 5889 5890 5890 5890 5891 5891 5892 5892 5892 5893 5893 5893 5894 5894 5894 5894 5894 5894 5894 5895 5895 5895 5895 5895 5895 5895 5895 5896 5896 5896
5884 5885 5885 5885 5885 5885 5886 5886 5886 5887 5888 5889 5890 5890 5891 5891 5891 5892 5893 5893 5893 5894 5894 5895 5895 5895 5895 5895 5895 5895 5895 5895 5895 5895 5895 5895 5895 5895 5895 5896 5896 5896 5896
5886 5886 5886 5886 5887 5887 5887 5887 5888 5888 5889 5890 5891 5891 5892 5892 5893 5893 5894 5894 5895 5895 5895 5896 5896 5896 5896 5896 5896 5896 5896 5896 5896 5896 5896 5896 5896 5896 5896 5896 5896 5896 5896
5888 5888 5888 5888 5888 5889 5889 5889 5889 5890 5891 5891 5892 5893 5893 5894 5894 5895 5895 5895 5896 5896 5896 5897 5897 5897 5897 5897 5897 5896 5897 5896 5896 5896 5896 5896 5896 5896 5896 5896 5896 5896 5896
5890 5890 5890 5890 5890 5890 5891 5891 5891 5891 5892 5893 5894 5894 5895 5895 5895 5896 5896 5896 5897 5897 5897 5898 5898 5898 5898 5898 5897 5897 5897 5897 5896 5896 5896 5896 5896 5896 5896 5896 5896 5896 5896
5891 5891 5892 5891 5892 5892 5892 5892 5892 5893 5893 5894 5895 5896 5896 5896 5896 5897 5897 5898 5898 5898 5898 5899 5899 5899 5899 5898 5898 5898 5897 5897 5897 5897 5896 5896 5896 5896 5896 5896 5896 5896 5896
5893 5893 5893 5893 5893 5893 5893 5894 5894 5895 5895 5896 5896 5897 5898 5898 5898 5898 5899 5899 5899 5899 5899 5900 5900 5899 5899 5899 5899 5898 5898 5897 5897 5897 5897 5897 5896 5896 5896 5896 5896 5896 5896
5894 5894 5895 5895 5895 5895 5895 5895 5896 5896 5897 5897 5898 5898 5899 5899 5899 5899 5900 5900 5900 5900 5900 5900 5900 5900 5900 5900 5899 5898 5898 5898 5898 5898 5897 5897 5896 5896 5896 5896 5896 5895 5895
5895 5895 5896 5896 5896 5896 5896 5897 5897 5898 5898 5899 5899 5900 5900 5900 5900 5901 5901 5901 5901 5901 5901 5901 5901 5900 5900 5900 5900 5899 5899 5899 5899 5898 5897 5897 5896 5896 5896 5896 5895 5895 5895
5897 5897 5897 5897 5898 5898 5898 5898 5899 5899 5900 5900 5900 5901 5901 5901 5902 5902 5902 5902 5902 5902 5902 5901 5901 5901 5901 5901 5900 5900 5900 5899 5899 5898 5897 5896 5896 5896 5896 5895 5895 5894 5894
5898 5898 5898 5898 5899 5899 5899 5900 5900 5900 5901 5901 5901 5902 5902 5902 5902 5903 5903 5903 5902 5902 5902 5902 5901 5901 5901 5901 5901 5900 5900 5900 5899 5898 5897 5897 5896 5895 5895 5895 5894 5894 5893
5899 5899 5900 5900 5900 5900 5900 5901 5901 5901 5902 5902 5902 5902 5903 5903 5903 5903 5903 5903 5903 5903 5903 5902 5902 5902 5901 5901 5901 5900 5900 5899 5899 5898 5897 5896 5895 5895 5894 5894 5893 5893 5892
5901 5901 5901 5901 5901 5901 5902 5902 5902 5902 5903 5903 5903 5903 5903 5904 5904 5904 5904 5904 5904 5903 5903 5903 5902 5902 5901 5901 5901 5900 5900 5899 5898 5897 5896 5895 5895 5894 5893 5893 5892 5892 5891
5902 5902 5902 5902 5902 5902 5903 5903 5903 5903 5903 5903 5903 5903 5904 5904 5904 5904 5904 5904 5904 5903 5903 5902 5902 5901 5901 5901 5900 5900 5899 5898 5898 5897 5896 5894 5894 5893 5892 5892 5891 5890 5889
5903 5903 5903 5903 5903 5903 5904 5904 5904 5904 5904 5904 5904 5903 5904 5904 5904 5904 5904 5904 5904 5903 5903 5902 5901 5901 5901 5900 5899 5899 5898 5897 5897 5896 5895 5894 5893 5892 5891 5890 5889 5889 5888
5905 5904 5905 5905 5905 5905 5905 5905 5905 5905 5905 5904 5904 5904 5904 5904 5904 5904 5904 5904 5903 5903 5902 5902 5901 5900 5900 5899 5899 5898 5897 5896 5895 5894 5893 5892 5891 5890 5890 5889 5888 5887 5886
5906 5906 5906 5906 5906 5905 5905 5905 5905 5905 5905 5905 5904 5904 5904 5904 5904 5904 5904 5903 5903 5902 5902 5901 5900 5900 5899 5898 5898 5897 5896 5895 5894 5892 5890 5890 5889 5888 5887 5887 5886 5885 5884
5907 5907 5907 5907 5907 5906 5906 5906 5906 5905 5905 5905 5905 5904 5904 5904 5904 5904 5904 5903 5902 5902 5901 5901 5900 5899 5898 5897 5896 5895 5894 5893 5892 5890 5889 5888 5887 5885 5884 5884 5883 5882 5881
5909 5908 5908 5908 5908 5907 5907 5907 5906 5906 5906 5905 5905 5905 5904 5904 5904 5904 5903 5903 5902 5901 5901 5900 5899 5898 5897 5896 5895 5894 5892 5891 5890 5888 5887 5885 5884 5883 5881 5881 5880 5880 5879
5910 5910 5910 5909 5909 5908 5908 5908 5907 5907 5906 5906 5905 5904 5904 5904 5903 5903 5903 5902 5901 5900 5899 5898 5898 5896 5895 5894 5893 5891 5890 5890 5887 5886 5884 5883 5882 5880 5879 5878 5877 5876 5875
5911 5911 5910 5910 5909 5909 5908 5908 5907 5906 5906 5906 5905 5904 5903 5903 5902 5902 5902 5901 5900 5899 5898 5897 5896 5895 5893 5891 5890 5889 5887 5886 5885 5884 5882 5880 5879 5877 5876 5875 5874 5873 5872
5912 5912 5911 5910 5910 5909 5908 5908 5907 5906 5906 5905 5905 5904 5903 5903 5902 5901 5901 5900 5899 5898 5897 5895 5894 5892 5891 5889 5888 5886 5885 5883 5882 5881 5879 5877 5876 5875 5873 5872 5871 5869 5868
5912 5912 5911 5911 5910 5909 5908 5907 5907 5906 5905 5905 5904 5904 5903 5902 5901 5900 5899 5898 5897 5896 5895 5893 5892 5890 5889 5887 5886 5884 5882 5881 5879 5878 5877 5875 5873 5872 5870 5869 5867 5866 5865
5913 5912 5911 5911 5910 5909 5908 5907 5906 5906 5905 5904 5904 5903 5902 5901 5900 5899 5898 5897 5896 5894 5893 5891 5890 5888 5886 5885 5883 5881 5880 5879 5877 5875 5874 5872 5870 5869 5867 5865 5864 5863 5862